Torreon International Airport
MMTC : rendu visible

Aérodrome :











RETROUVEZ-NOUS SUR...

 
LOGIN :

S'inscrire | Disclaimer

   EN    FR    IT 

 









Légende :    VFR   VFR Marginal   IFR   IFR Intensif   IFR Très Intensif
Visi : 
Plafond : 
>= 8 km
>= 3000ft
5 à 8 km
1000 à 3000 ft
1500m à 5 km
500 à 1000 ft
800 à 1500m
200 à 500 ft
< 800m
< 200 ft
Symboles :   Orages  Brouillard  Fortes neiges  Fortes précipitations  Vent > 20 kt






- Altitude de l'aérodrome : 3688 ft
- Code IATA : TRC


MMTC - Torreon International

DERNIER METAR :
  • 070148Z 00000KT 10SM SKC 34/10 A2986

METARs EXPIRÉS :
  • 070046Z 00000KT 10SM SKC 35/09 A2986
  • 062346Z 03007KT 10SM SKC 36/09 A2987 RMK SLP990 57017 957 ISOL AS

TAF TAF MMTC
Valide du 06 à 18h jusqu'au 07 à 18h UTC


061717Z 0618/0718 04006KT P6SM SKC
BECMG 0620/0621 07015KT SCT030
FM070200 03006KT P6SM SKC
BECMG 0705/0706 00000KT
FM071600 04008KT P6SM SKC
FIR MMFR / Amérique du Nord



MET'MAP, la Météo Aéronautique d'un coup d'oeil ! - Copyright ORBIFLY Décembre 2007 - Disclaimer

ORBIFLY MET'MAP TEAM :

Programmation & Développement : Alexandra Zaïnal
Sur une idée originale de : Baudouin d'Aumeries
Assistance à la programmation : Marc-Olivier Méhu
Soutien technique & logistique : Manuel Goepfert

Contact : metmap@orbifly.com




SOURCES & CREDITS :

   NOAA       Earth
Advisory